Flag for Spain Weather past 2 weeks in Madrid, Spain

Now
91 °F

Passing clouds.


Feels Like: 87 °F
Forecast: 65 / 90 °F
Wind: 5 mph from North

Location: Madrid / Cuatro Vientos

Current Time: Jun 2, 2015 at 5:40:34 PM

Latest Report: Jun 2, 2015 at 5:00 PM


Visibility: N/A

Pressure: 30.09 "Hg

Humidity: 15%

Dew point: 37 °F

Location of MadridLocation

Historic Weather in Madrid — Graph

°F

Madrid temperature yesterday

Maximum temperature yesterday: 90 °F (at 6:00 PM)
Minimum temperature yesterday: 63 °F (at 7:00 AM)
Average temperature yesterday: 80 °F

Past Weeks' High & Low Weather Summary

 TemperatureHumidityPressure
High91 °F (Jun 2, 4:30 PM)77% (May 30, 7:00 AM)30.33 "Hg (May 30, 7:00 AM)
Low45 °F (May 20, 7:00 AM)13% (May 18, 4:00 PM)29.80 "Hg (May 19, 7:00 AM)
Average72 °F32%30.06 "Hg
* Reported May 18 4:00 PM — Jun 2 4:30 PM, Madrid, Weather by CustomWeather, © 2015

Note: Actual official high and low records may vary slightly from our data, if they occured in-between our weather recording intervals... More about our weather records

Advertising

Madrid weather history for previous 24 hours

 ConditionsComfort  
Time TempWeatherWind HumidityBarometerVisibility
4:30 PM
Tue, Jun 2
91 °FScattered clouds.6 mph16%30.09 "HgN/A
4:00 PM90 °FScattered clouds.9 mph17%30.09 "HgN/A
3:30 PM90 °FScattered clouds.5 mph18%30.12 "HgN/A
3:00 PM90 °FPassing clouds.8 mph18%30.12 "HgN/A
2:30 PM88 °FPassing clouds.5 mph21%30.12 "HgN/A
2:00 PM88 °FPassing clouds.7 mph21%30.12 "HgN/A
1:30 PM88 °FPassing clouds.2 mph22%30.12 "HgN/A
1:00 PM84 °FPassing clouds.2 mph27%30.15 "HgN/A
12:30 PM84 °FSunny.1 mph27%30.15 "Hg10 mi
12:00 PM82 °FSunny.2 mph30%30.15 "Hg10 mi
11:30 AM81 °FPassing clouds.3 mph32%30.15 "HgN/A
11:00 AM79 °FSunny.2 mph34%30.15 "Hg10 mi
10:30 AM75 °FSunny.2 mph39%30.15 "Hg10 mi
10:00 AM75 °FSunny.1 mph39%30.15 "Hg10 mi
9:30 AM73 °FSunny.2 mph44%30.12 "Hg10 mi
9:00 AM70 °FPassing clouds.5 mph50%30.12 "HgN/A
8:30 AM70 °FPassing clouds.3 mph50%30.12 "HgN/A
8:00 AM68 °FPassing clouds.5 mph53%30.09 "HgN/A
7:30 AM66 °FPassing clouds.5 mph56%30.09 "HgN/A
7:00 AM66 °FPassing clouds.3 mph60%30.09 "HgN/A
11:30 PM
Mon, Jun 1
77 °FPassing clouds.5 mph30%30.07 "HgN/A
10:30 PM79 °FPassing clouds.9 mph24%30.04 "HgN/A
10:00 PM81 °FPassing clouds.8 mph21%30.04 "HgN/A
9:30 PM81 °FPassing clouds.12 mph24%30.04 "HgN/A
9:00 PM81 °FPassing clouds.10 mph23%30.04 "HgN/A
8:30 PM82 °FPassing clouds.10 mph20%30.01 "HgN/A
8:00 PM82 °FPassing clouds.7 mph20%30.01 "HgN/A
7:30 PM86 °FPassing clouds.9 mph18%30.01 "HgN/A
7:00 PM84 °FPassing clouds.8 mph18%30.01 "HgN/A
6:30 PM88 °FPassing clouds.7 mph17%30.01 "HgN/A
6:00 PM90 °FScattered clouds.3 mph14%30.01 "HgN/A
5:30 PM88 °FScattered clouds.8 mph15%30.01 "HgN/A
5:00 PM88 °FScattered clouds.3 mph16%30.01 "HgN/A
Weather by CustomWeather, © 2015

See weather overviewHow to use our weather pages